Weather History for EGNS - October, 2012

Change the Weather History Date:

Tuesday, October 23, 2012

  Actual Average Record
Temperature  
Mean Temperature 54 °F -  
Max Temperature 57 °F 51 °F 60 °F (1996)
Min Temperature 52 °F 43 °F 37 °F (2010)
Degree Days  
Heating Degree Days 10    
Growing Degree Days 4 (Base 50)    
Moisture  
Dew Point 53 °F    
Average Humidity 93    
Maximum Humidity 100    
Minimum Humidity 88    
Precipitation  
Precipitation 0.02 in - - ()
Sea Level Pressure  
Sea Level Pressure 30.30 in    
Wind  
Wind Speed 6 mph ()    
Max Wind Speed 13 mph    
Max Gust Speed -    
Visibility 6.6 miles    
Events Rain    
Averages and records for this station are not official NWS values.
T = Trace of Precipitation, MM = Missing Value Source: Averaged Metar Reports

Daily Weather History Graph

Daily Weather History Graph

Search for Another Location

Airport or City:

Trip Planner

Search our weather history database for the weather conditions in past years. The results will help you decide how hot, cold, wet, or windy it might be!

Date:

Astronomy

Oct. 23, 2012 Rise Set
Actual Time 8:02 AM BST 6:02 PM BST
Civil Twilight 7:25 AM BST 6:38 PM BST
Nautical Twilight 6:44 AM BST 7:19 PM BST
Astronomical Twilight 6:03 AM BST 8:00 PM BST
Moon 3:26 PM BST 12:44 AM BST
Length of Visible Light 11h 12m
Length of Day
9h 59m
Waxing Gibbous, 64% of the Moon is Illuminated
Oct 23
Waxing Gibbous
Oct 29
Full
Nov 7
Last Quarter
Nov 13
New
Nov 20
First Quarter

Hourly Weather History & Observations

Time (BST) Temp. Dew Point Humidity Pressure Visibility Wind Dir Wind Speed Gust Speed Precip Events Conditions
12:50 AM 53 °F 52 °F 95% 30.29 in 9 mi ENE 12.7 mph - -   Overcast
12:50 AM 53.6 °F 51.8 °F 94% 30.27 in 6.2 mi ENE 12.7 mph - N/A   Scattered Clouds
1:50 AM 53.6 °F 51.8 °F 94% 30.27 in 5.0 mi ENE 10.4 mph - N/A Rain Light Rain
2:50 AM 53.6 °F 53.6 °F 100% 30.27 in 6.2 mi East 12.7 mph - N/A Rain Light Rain
3:50 AM 53 °F 52 °F 96% 30.28 in 12 mi East 10.4 mph - - Rain Light Rain
3:50 AM 53.6 °F 51.8 °F 94% 30.27 in 6.2 mi East 10.4 mph - N/A   Overcast
4:50 AM 53.6 °F 51.8 °F 94% 30.27 in 6.2 mi ENE 9.2 mph - N/A   Overcast
5:20 AM 53.6 °F 51.8 °F 94% 30.27 in 6.2 mi ENE 9.2 mph - N/A   Overcast
5:50 AM 53.6 °F 51.8 °F 94% 30.27 in 5.0 mi NE 6.9 mph - N/A   Light Drizzle
6:20 AM 53.6 °F 51.8 °F 94% 30.27 in 6.2 mi NE 3.5 mph - N/A   Overcast
6:50 AM 53 °F 52 °F 95% 30.29 in 5 mi NE 3.5 mph - - Rain Light Drizzle
6:50 AM 53.6 °F 51.8 °F 94% 30.27 in 5.0 mi NE 3.5 mph - N/A   Light Drizzle
7:50 AM 53.6 °F 51.8 °F 94% 30.30 in 6.2 mi Variable 3.5 mph - N/A   Light Drizzle
8:20 AM 53.6 °F 51.8 °F 94% 30.30 in 4.3 mi ENE 3.5 mph - N/A   Light Drizzle
8:50 AM 53.6 °F 53.6 °F 100% 30.30 in 6.2 mi Variable 3.5 mph - N/A   Light Drizzle
9:20 AM 53.6 °F 53.6 °F 100% 30.30 in 6.2 mi Variable 2.3 mph - N/A Rain Light Rain
9:50 AM 54 °F 53 °F 94% 30.32 in 7 mi East 3.5 mph - - Rain Light Rain
11:20 AM 55.4 °F 53.6 °F 94% 30.33 in 6.2 mi Variable 3.5 mph - N/A   Overcast
11:50 AM 55.4 °F 53.6 °F 94% 30.33 in 6.2 mi East 4.6 mph - N/A   Overcast
12:20 PM 55.4 °F 53.6 °F 94% 30.33 in 6.2 mi Variable 2.3 mph - N/A   Overcast
12:50 PM 55 °F 54 °F 93% 30.34 in 12 mi NW 2.3 mph - -   Partly Cloudy
12:50 PM 55.4 °F 53.6 °F 94% 30.33 in 6.2 mi NW 2.3 mph - N/A   Overcast
1:20 PM 55.4 °F 53.6 °F 94% 30.33 in 6.2 mi Variable 2.3 mph - N/A   Overcast
1:50 PM 55.4 °F 55.4 °F 100% 30.30 in 6.2 mi Variable 2.3 mph - N/A   Overcast
2:20 PM 55.4 °F 53.6 °F 94% 30.30 in 6.2 mi ESE 3.5 mph - N/A   Overcast
2:50 PM 55.4 °F 53.6 °F 94% 30.30 in 6.2 mi ESE 4.6 mph - N/A   Overcast
3:20 PM 55.4 °F 53.6 °F 94% 30.30 in 6.2 mi East 6.9 mph - N/A   Overcast
3:50 PM 56 °F 54 °F 90% 30.31 in 9 mi East 8.1 mph - -   Overcast
3:50 PM 55.4 °F 53.6 °F 94% 30.30 in 6.2 mi East 8.1 mph - N/A   Overcast
4:20 PM 57.2 °F 53.6 °F 88% 30.30 in 6.2 mi North 4.6 mph - N/A   Mostly Cloudy
4:50 PM 57.2 °F 53.6 °F 88% 30.30 in 6.2 mi Variable 2.3 mph - N/A   Mostly Cloudy
5:20 PM 55.4 °F 53.6 °F 94% 30.30 in 6.2 mi ENE 2.3 mph - N/A   Mostly Cloudy
5:50 PM 55.4 °F 53.6 °F 94% 30.30 in 6.2 mi NE 6.9 mph - N/A   Mostly Cloudy
6:20 PM 55.4 °F 51.8 °F 88% 30.30 in 6.2 mi NE 4.6 mph - N/A   Mostly Cloudy
6:50 PM 55 °F 52 °F 88% 30.32 in 9 mi NE 3.5 mph - -   Mostly Cloudy
6:50 PM 55.4 °F 51.8 °F 88% 30.30 in 6.2 mi NE 3.5 mph - N/A   Mostly Cloudy
7:20 PM 55.4 °F 51.8 °F 88% 30.30 in 6.2 mi Variable 3.5 mph - N/A   Mostly Cloudy
7:50 PM 55.4 °F 51.8 °F 88% 30.30 in 6.2 mi NE 4.6 mph - N/A   Mostly Cloudy
8:20 PM 55.4 °F 51.8 °F 88% 30.30 in 6.2 mi NNE 4.6 mph - N/A   Mostly Cloudy
8:50 PM 55.4 °F 51.8 °F 88% 30.30 in 6.2 mi NE 4.6 mph - N/A   Mostly Cloudy
9:50 PM 55 °F 52 °F 88% 30.32 in 9 mi East 6.9 mph - -   Mostly Cloudy
9:50 PM 55.4 °F 51.8 °F 88% 30.30 in 6.2 mi East 6.9 mph - N/A   Mostly Cloudy
10:50 PM 55.4 °F 51.8 °F 88% 30.30 in 6.2 mi NE 5.8 mph - N/A   Mostly Cloudy
11:50 PM 55.4 °F 51.8 °F 88% 30.30 in 6.2 mi NNE 9.2 mph - N/A   Mostly Cloudy